Temp
-16 -17 -17 -17 -17 -17 -16 -16 -16 -16 -16 -16 -16 -15 -15 -15 -15 -15 -15 -16 -15 -16 -16 -16 -16 -15 -15 -14 -14 -14 -13 -12 -13 -13 -13 -13 -13 -14 -13 -13 -12 -12 -12 -12 -12
-16 -17 -16 -16 -16 -16 -16 -16 -16 -16 -16 -16 -16 -16 -16 -16 -15 -15 -15 -16 -16 -16 -15 -16 -17 -16 -15 -15 -15 -14 -13 -12 -13 -14 -13 -14 -14 -15 -14 -13 -13 -12 -12 -12 -12
-17 -17 -17 -17 -17 -17 -17 -16 -17 -17 -17 -17 -17 -16 -16 -16 -16 -16 -16 -16 -16 -16 -16 -16 -16 -17 -16 -15 -15 -14 -13 -13 -14 -14 -14 -14 -13 -14 -15 -13 -13 -13 -12 -12 -12
-17 -17 -17 -17 -17 -18 -18 -18 -17 -17 -17 -17 -17 -17 -17 -16 -16 -17 -16 -17 -17 -17 -17 -17 -17 -16 -16 -16 -16 -15 -14 -14 -14 -14 -14 -14 -14 -14 -14 -15 -14 -13 -14 -12 -12
-17 -17 -17 -18 -18 -19 -19 -19 -19 -19 -19 -19 -19 -19 -18 -17 -16 -18 -17 -17 -17 -17 -17 -17 -17 -17 -16 -16 -17 -16 -15 -15 -15 -15 -15 -15 -14 -14 -14 -15 -15 -14 -13 -13 -13
-17 -18 -18 -18 -18 -19 -20 -20 -21 -21 -21 -21 -21 -21 -20 -18 -19 -19 -19 -18 -18 -18 -18 -18 -18 -18 -17 -16 -16 -16 -16 -15 -16 -15 -15 -15 -14 -15 -13 -15 -15 -14 -14 -14 -14
-18 -18 -18 -18 -19 -20 -20 -21 -21 -21 -21 -21 -21 -21 -21 -20 -20 -20 -20 -20 -21 -20 -19 -19 -19 -19 -18 -17 -17 -16 -16 -16 -15 -15 -15 -15 -14 -13 -13 -15 -15 -14 -14 -14 -14
-18 -18 -18 -19 -20 -21 -21 -21 -21 -21 -21 -21 -21 -21 -21 -21 -21 -21 -21 -21 -20 -21 -21 -20 -20 -20 -19 -18 -18 -17 -17 -16 -15 -16 -16 -16 -12 -14 -14 -15 -15 -15 -15 -14 -14
-18 -18 -19 -19 -20 -21 -21 -21 -21 -22 -22 -22 -22 -22 -21 -21 -21 -21 -21 -21 -21 -21 -21 -21 -22 -21 -20 -19 -19 -18 -16 -15 -15 -16 -17 -17 -13 -14 -15 -16 -15 -15 -15 -14 -14
-19 -19 -19 -20 -21 -22 -22 -22 -22 -22 -22 -23 -23 -24 -23 -22 -21 -21 -21 -21 -21 -21 -21 -22 -22 -22 -21 -21 -19 -17 -17 -16 -16 -16 -17 -17 -14 -15 -16 -16 -16 -16 -16 -15 -15
-19 -20 -20 -21 -22 -22 -22 -22 -23 -23 -23 -24 -24 -24 -24 -24 -23 -23 -22 -21 -21 -21 -21 -22 -22 -22 -21 -20 -19 -19 -19 -18 -17 -18 -18 -17 -15 -16 -16 -16 -17 -16 -16 -15 -15
-20 -20 -21 -22 -22 -23 -23 -24 -25 -25 -23 -24 -25 -25 -24 -24 -24 -25 -23 -23 -22 -21 -22 -23 -23 -21 -21 -21 -21 -20 -20 -19 -18 -18 -18 -18 -17 -17 -17 -16 -16 -16 -16 -16 -16
-21 -22 -22 -22 -23 -24 -24 -25 -25 -25 -25 -25 -26 -28 -28 -27 -26 -27 -26 -25 -24 -23 -23 -23 -21 -22 -23 -22 -23 -21 -21 -20 -19 -20 -19 -19 -18 -18 -17 -17 -17 -16 -16 -16 -15
-22 -23 -23 -23 -24 -24 -25 -26 -26 -26 -26 -27 -29 -31 -31 -31 -30 -30 -30 -29 -27 -26 -25 -24 -22 -24 -24 -23 -22 -21 -20 -20 -20 -21 -21 -21 -19 -18 -18 -17 -17 -16 -16 -16 -16
-23 -23 -23 -24 -25 -25 -26 -26 -27 -28 -28 -30 -31 -32 -33 -33 -32 -30 -31 -30 -29 -29 -28 -25 -25 -25 -25 -24 -23 -22 -21 -21 -22 -22 -22 -22 -22 -18 -18 -18 -17 -16 -16 -16 -16
-23 -24 -24 -25 -26 -26 -26 -27 -28 -30 -31 -32 -33 -32 -32 -32 -32 -32 -31 -32 -30 -29 -29 -28 -28 -26 -26 -26 -25 -24 -24 -24 -24 -24 -25 -23 -23 -17 -19 -17 -17 -17 -17 -16 -16
-23 -24 -25 -26 -26 -26 -27 -29 -31 -32 -33 -32 -32 -32 -32 -32 -32 -32 -32 -31 -30 -29 -29 -29 -28 -26 -27 -26 -26 -25 -25 -25 -25 -25 -24 -22 -24 -20 -19 -18 -17 -17 -17 -17 -17
-24 -25 -26 -26 -27 -28 -29 -31 -32 -33 -33 -32 -32 -32 -32 -32 -32 -32 -32 -31 -30 -30 -29 -28 -28 -27 -26 -26 -25 -25 -25 -25 -25 -25 -24 -24 -24 -21 -19 -19 -19 -18 -18 -18 -18
-24 -25 -26 -26 -27 -28 -31 -33 -34 -34 -33 -32 -32 -32 -31 -32 -32 -32 -31 -31 -30 -29 -29 -28 -28 -28 -26 -25 -25 -24 -25 -24 -25 -25 -25 -24 -24 -23 -22 -22 -21 -20 -19 -19 -19
-24 -25 -26 -27 -28 -30 -33 -34 -34 -34 -33 -33 -33 -32 -31 -31 -32 -31 -31 -30 -30 -30 -29 -28 -27 -27 -27 -26 -25 -24 -24 -25 -25 -24 -24 -24 -24 -23 -22 -22 -22 -21 -21 -21 -20
-24 -26 -26 -27 -29 -33 -34 -34 -35 -34 -34 -33 -32 -32 -32 -31 -31 -31 -31 -31 -30 -30 -29 -28 -27 -27 -27 -27 -26 -25 -24 -25 -25 -24 -24 -24 -24 -23 -23 -23 -23 -23 -23 -22 -22
-24 -26 -27 -29 -31 -34 -35 -35 -35 -34 -34 -33 -32 -32 -32 -32 -31 -31 -31 -30 -30 -29 -29 -28 -27 -27 -26 -26 -26 -25 -26 -26 -26 -25 -24 -25 -24 -24 -23 -23 -23 -23 -23 -23 -23
-25 -26 -27 -30 -33 -34 -34 -34 -35 -34 -34 -32 -32 -32 -32 -32 -32 -31 -31 -31 -30 -30 -29 -28 -28 -27 -26 -26 -26 -26 -26 -26 -25 -25 -25 -24 -23 -23 -24 -24 -24 -24 -23 -24 -23
-26 -27 -27 -30 -34 -35 -34 -35 -35 -34 -34 -33 -32 -32 -32 -31 -31 -31 -30 -30 -30 -30 -30 -28 -28 -28 -27 -27 -26 -26 -26 -25 -25 -25 -24 -24 -24 -24 -24 -24 -24 -24 -24 -24 -23
-26 -27 -29 -32 -34 -35 -35 -35 -34 -34 -33 -33 -33 -32 -32 -31 -31 -31 -31 -30 -30 -30 -29 -29 -28 -28 -27 -27 -26 -26 -26 -25 -25 -25 -26 -25 -25 -24 -24 -24 -24 -24 -24 -24 -24
-27 -27 -28 -32 -35 -35 -35 -35 -34 -34 -33 -33 -32 -32 -31 -31 -31 -30 -30 -30 -30 -30 -29 -29 -28 -28 -27 -27 -26 -26 -26 -25 -25 -25 -25 -25 -25 -24 -24 -24 -24 -24 -24 -24 -23
-26 -27 -29 -33 -35 -35 -35 -35 -34 -33 -33 -32 -32 -32 -31 -31 -31 -31 -30 -30 -30 -30 -29 -29 -28 -28 -27 -27 -26 -26 -26 -26 -25 -25 -25 -25 -25 -24 -24 -24 -24 -24 -24 -24 -23
Height
5735 5731 5727 5723 5719 5715 5710 5706 5702 5698 5694 5692 5689 5687 5687 5687 5689 5688 5692 5687 5686 5686 5689 5688 5690 5690 5691 5694 5694 5695 5691 5694 5706 5716 5726 5724 5719 5720 5721 5723 5728 5731 5737 5740 5742
5727 5723 5719 5713 5707 5702 5696 5691 5686 5682 5678 5675 5673 5673 5672 5672 5673 5678 5675 5674 5671 5670 5672 5675 5674 5673 5675 5679 5678 5680 5680 5684 5706 5709 5712 5713 5708 5706 5708 5712 5717 5722 5729 5733 5735
5718 5713 5708 5702 5696 5689 5682 5675 5668 5663 5660 5657 5655 5655 5656 5656 5660 5663 5661 5658 5656 5656 5656 5656 5657 5656 5659 5664 5664 5668 5668 5682 5688 5696 5699 5699 5698 5700 5696 5702 5709 5716 5723 5723 5723
5707 5701 5695 5688 5682 5675 5668 5662 5655 5649 5644 5637 5635 5634 5635 5638 5643 5645 5642 5638 5636 5636 5637 5639 5641 5640 5644 5646 5654 5651 5657 5664 5677 5681 5683 5686 5690 5685 5686 5694 5699 5706 5708 5711 5716
5696 5689 5681 5674 5666 5658 5650 5644 5636 5630 5625 5618 5613 5613 5613 5617 5631 5621 5617 5616 5619 5619 5620 5622 5623 5622 5626 5634 5635 5634 5639 5647 5656 5665 5669 5671 5672 5674 5675 5683 5687 5691 5698 5703 5707
5683 5674 5666 5659 5652 5643 5635 5628 5620 5614 5610 5602 5595 5591 5590 5597 5605 5601 5594 5590 5595 5598 5602 5604 5609 5607 5606 5611 5615 5622 5624 5630 5635 5645 5649 5651 5658 5659 5667 5674 5677 5682 5690 5694 5697
5667 5660 5653 5645 5636 5625 5618 5612 5605 5601 5595 5588 5582 5574 5575 5588 5579 5576 5569 5575 5572 5574 5579 5584 5583 5582 5590 5595 5600 5603 5605 5612 5621 5630 5633 5638 5639 5644 5657 5664 5667 5672 5679 5686 5688
5659 5650 5641 5630 5619 5608 5601 5594 5589 5585 5578 5572 5565 5555 5557 5565 5557 5554 5546 5551 5552 5552 5555 5561 5560 5560 5565 5573 5578 5584 5589 5594 5609 5613 5616 5621 5623 5641 5645 5653 5656 5663 5666 5672 5678
5646 5636 5626 5615 5604 5595 5587 5580 5574 5568 5560 5552 5545 5533 5540 5539 5533 5531 5527 5533 5528 5533 5537 5541 5540 5541 5548 5553 5556 5564 5574 5580 5590 5593 5595 5599 5612 5627 5635 5638 5644 5650 5655 5658 5665
5633 5622 5612 5601 5590 5579 5571 5562 5554 5548 5539 5531 5521 5510 5512 5511 5506 5507 5510 5503 5510 5518 5517 5521 5520 5523 5529 5530 5530 5554 5558 5563 5569 5580 5581 5589 5598 5606 5618 5622 5630 5636 5641 5644 5648
5620 5608 5597 5586 5574 5562 5552 5541 5531 5526 5520 5514 5503 5486 5486 5483 5482 5483 5471 5480 5487 5489 5493 5502 5493 5494 5515 5524 5536 5540 5537 5542 5556 5561 5566 5574 5586 5591 5600 5603 5611 5620 5626 5632 5637
5606 5594 5582 5571 5561 5547 5533 5519 5504 5491 5484 5492 5471 5460 5455 5456 5462 5453 5457 5455 5459 5461 5464 5467 5466 5492 5503 5508 5514 5520 5521 5527 5539 5542 5543 5555 5560 5570 5576 5587 5597 5605 5613 5619 5625
5592 5580 5568 5557 5547 5533 5518 5506 5491 5477 5466 5471 5450 5436 5435 5433 5433 5436 5431 5424 5432 5435 5441 5442 5469 5473 5475 5483 5487 5496 5503 5516 5522 5526 5529 5529 5534 5547 5559 5569 5581 5588 5598 5605 5612
5580 5567 5554 5542 5533 5519 5503 5491 5477 5461 5450 5448 5438 5424 5424 5418 5418 5418 5414 5412 5417 5418 5421 5422 5448 5444 5456 5460 5475 5475 5501 5507 5508 5506 5504 5514 5505 5529 5545 5551 5558 5577 5586 5595 5600
5568 5554 5540 5523 5512 5501 5488 5476 5462 5449 5434 5432 5424 5418 5415 5412 5404 5411 5403 5402 5408 5408 5407 5412 5420 5427 5434 5450 5459 5466 5487 5488 5492 5488 5491 5491 5493 5505 5523 5529 5547 5564 5575 5581 5588
5557 5542 5526 5518 5503 5489 5473 5461 5449 5438 5426 5422 5418 5415 5411 5410 5404 5393 5394 5393 5401 5404 5403 5402 5403 5410 5423 5436 5443 5464 5463 5470 5474 5475 5464 5477 5482 5492 5498 5521 5536 5549 5562 5569 5573
5547 5532 5512 5500 5490 5475 5460 5447 5438 5428 5421 5419 5415 5413 5410 5404 5401 5394 5391 5392 5395 5399 5399 5396 5396 5403 5413 5420 5430 5442 5451 5455 5457 5455 5453 5472 5466 5475 5490 5507 5524 5536 5544 5550 5556
5537 5522 5506 5490 5476 5461 5449 5439 5431 5423 5418 5415 5413 5410 5405 5401 5399 5394 5389 5391 5393 5397 5395 5393 5393 5392 5405 5412 5423 5431 5437 5442 5445 5447 5452 5459 5451 5463 5487 5497 5502 5513 5525 5536 5540
5528 5514 5496 5482 5466 5450 5439 5432 5425 5419 5416 5411 5410 5406 5402 5397 5393 5391 5389 5391 5393 5394 5394 5392 5391 5390 5397 5404 5413 5420 5422 5437 5440 5443 5446 5448 5453 5463 5473 5480 5488 5499 5509 5519 5525
5517 5504 5486 5471 5456 5441 5432 5426 5419 5415 5410 5410 5407 5404 5399 5395 5393 5389 5389 5389 5390 5390 5390 5392 5391 5392 5394 5399 5406 5411 5422 5426 5431 5434 5436 5441 5445 5453 5467 5474 5481 5486 5494 5498 5505
5504 5491 5474 5458 5443 5433 5426 5421 5414 5412 5407 5408 5406 5403 5399 5396 5392 5389 5388 5389 5389 5389 5390 5391 5392 5391 5393 5398 5400 5408 5414 5418 5421 5426 5428 5434 5437 5452 5461 5463 5467 5471 5476 5481 5489
5494 5480 5462 5444 5435 5425 5420 5414 5408 5406 5407 5405 5404 5401 5397 5395 5391 5388 5387 5386 5386 5386 5389 5389 5390 5390 5393 5395 5399 5403 5408 5411 5412 5419 5424 5429 5439 5445 5451 5453 5456 5459 5462 5467 5473
5479 5469 5455 5437 5426 5420 5414 5411 5404 5402 5404 5402 5401 5398 5395 5392 5390 5387 5386 5386 5386 5384 5386 5388 5389 5388 5393 5394 5396 5400 5404 5409 5412 5415 5418 5423 5436 5442 5444 5443 5445 5447 5451 5458 5461
5467 5453 5442 5430 5420 5414 5408 5405 5401 5399 5401 5399 5398 5396 5394 5391 5388 5386 5386 5385 5384 5382 5383 5384 5385 5386 5388 5388 5391 5396 5400 5404 5407 5409 5415 5418 5430 5429 5430 5431 5433 5436 5439 5442 5447
5460 5449 5431 5418 5414 5409 5403 5398 5397 5397 5398 5396 5398 5395 5392 5389 5387 5386 5385 5384 5382 5380 5381 5382 5384 5384 5386 5388 5391 5392 5397 5401 5402 5406 5409 5413 5417 5419 5423 5424 5426 5430 5433 5435 5438
5454 5440 5426 5414 5409 5405 5399 5396 5396 5397 5396 5396 5394 5393 5391 5389 5386 5382 5381 5380 5379 5379 5379 5381 5383 5384 5387 5388 5391 5394 5397 5399 5401 5403 5405 5407 5410 5412 5416 5418 5419 5421 5424 5427 5430
5452 5438 5419 5409 5403 5399 5397 5396 5395 5397 5397 5395 5392 5391 5389 5386 5383 5381 5378 5376 5374 5374 5376 5379 5382 5384 5386 5388 5391 5394 5395 5397 5398 5400 5401 5402 5404 5407 5408 5409 5411 5413 5417 5419 5422
Wind_Speed
33 36 40 43 47 50 53 56 57 58 57 54 52 51 52 53 52 53 51 53 54 53 50 54 55 54 57 58 58 58 62 60 51 40 31 34 41 45 49 50 48 48 40 38 39
38 42 46 50 53 57 59 60 61 61 60 59 56 53 53 54 54 52 57 59 59 59 57 55 55 58 60 61 61 64 67 63 46 43 38 40 46 48 52 54 52 51 46 40 41
45 48 52 54 57 59 60 62 62 61 60 60 61 60 57 57 55 55 57 61 63 66 65 63 61 62 64 62 66 68 71 62 53 47 45 47 52 51 54 55 52 48 46 47 48
50 54 58 59 63 61 63 62 63 65 64 66 66 67 66 64 60 58 61 63 65 67 68 68 67 68 66 65 64 70 71 68 59 54 53 53 52 56 58 53 54 52 50 51 51
54 58 62 64 65 67 68 65 62 60 60 62 65 66 67 67 62 61 68 70 69 67 68 68 72 74 73 69 68 70 73 72 67 60 60 58 60 59 60 55 55 56 53 51 50
60 64 68 69 71 71 69 60 57 54 53 54 57 60 64 65 59 65 70 73 74 71 70 68 68 67 77 77 76 73 72 70 69 66 66 66 65 64 62 57 55 55 53 51 51
65 70 73 72 76 73 65 58 56 53 53 55 58 60 59 51 56 64 71 71 69 71 72 67 70 72 74 76 78 78 79 76 71 69 71 69 71 70 63 58 56 52 52 53 52
65 69 73 77 74 69 65 61 61 58 60 62 64 67 62 54 58 61 66 69 73 73 72 70 69 71 75 78 79 82 82 82 75 72 72 74 76 69 66 60 58 52 51 54 54
68 70 76 75 72 68 65 62 65 68 68 67 69 73 68 64 65 65 68 67 71 72 73 71 69 72 73 76 78 82 87 86 82 80 78 76 77 71 67 63 61 57 55 55 55
70 69 74 74 71 70 70 72 73 74 71 68 66 66 64 65 71 72 71 75 72 70 75 73 74 74 75 76 85 86 87 88 88 85 81 77 76 75 69 66 63 60 59 59 59
68 70 75 73 73 74 76 80 80 73 64 60 57 62 60 62 64 66 75 78 76 76 75 74 76 81 76 75 74 73 77 82 83 81 79 82 79 75 72 72 68 67 65 62 61
68 71 72 74 75 76 80 81 77 79 75 58 61 62 61 59 56 59 67 73 77 80 79 75 78 77 74 73 73 73 74 77 78 77 82 81 85 80 78 74 72 71 68 64 62
69 71 73 76 74 77 77 75 75 75 70 56 61 52 45 44 44 38 50 61 67 72 74 79 77 74 72 73 70 74 75 75 76 73 74 77 87 84 82 79 74 75 73 69 66
68 71 75 77 74 76 76 75 73 71 68 56 42 41 35 36 39 34 35 46 53 60 64 73 72 69 65 72 70 78 70 69 71 72 75 71 86 82 82 82 79 73 72 71 70
68 71 75 75 76 75 76 73 70 65 63 42 37 23 21 30 35 23 39 43 36 40 49 61 63 66 64 62 64 68 61 64 66 66 67 70 76 88 81 84 82 76 71 70 70
69 71 74 71 72 75 74 72 65 56 48 32 14 21 24 23 25 30 32 35 32 25 24 37 40 54 55 57 65 56 54 52 55 55 68 69 69 88 83 82 81 76 70 70 68
70 70 71 72 74 75 72 65 54 44 32 14 19 16 21 24 22 22 16 25 29 20 17 20 26 41 45 50 52 54 54 53 53 56 63 66 66 78 80 75 76 76 71 69 68
71 68 69 72 74 72 68 51 43 31 16 18 15 15 22 25 19 21 13 9 28 18 14 14 11 33 47 51 52 53 53 53 54 52 55 57 65 69 68 70 72 73 70 69 69
72 69 66 72 72 69 54 40 36 19 13 13 14 28 19 21 21 16 9 6 11 20 14 15 8 22 51 45 49 46 54 55 51 55 54 54 55 52 59 57 61 68 67 65 66
74 70 70 72 70 61 44 37 34 24 19 20 23 25 22 21 14 7 7 7 5 12 17 12 7 11 27 54 52 53 45 42 52 51 56 50 47 46 48 50 51 51 47 52 62
75 70 72 73 69 46 35 33 31 18 22 19 22 19 15 17 17 13 5 5 9 10 13 8 13 3 17 34 46 50 50 42 35 44 22 34 54 48 33 30 39 44 50 51 53
76 70 72 70 56 38 34 40 33 14 13 13 16 13 16 21 20 12 4 7 9 17 17 5 8 8 7 14 28 50 42 41 43 48 41 33 19 15 24 31 29 31 36 42 43
76 72 72 65 48 26 31 42 26 15 8 13 16 7 12 17 17 10 3 5 7 13 11 9 4 7 14 14 16 24 24 25 36 51 54 53 45 36 32 37 42 42 43 42 32
73 74 74 63 42 23 36 35 12 14 9 17 16 12 18 12 15 11 7 5 10 11 9 7 5 6 7 5 14 19 23 28 25 31 40 48 54 47 45 44 43 39 33 30 47
72 72 69 52 40 28 38 27 7 12 10 18 15 16 18 13 7 10 10 7 11 11 15 13 2 5 3 9 5 23 22 23 19 31 23 24 30 39 39 43 42 37 38 35 33
70 72 71 50 34 31 27 18 10 5 8 14 18 14 16 17 17 14 19 16 11 14 13 19 7 7 10 9 14 14 15 14 16 18 22 25 27 30 35 36 42 39 29 28 35
68 70 65 33 20 20 18 13 4 3 7 14 12 18 18 20 22 23 24 23 23 16 13 19 17 7 7 4 8 7 6 7 8 11 10 17 25 29 32 34 31 36 37 30 29
Wind_Direction
304 302 299 295 291 288 286 286 286 285 283 279 276 275 274 269 267 263 257 253 253 252 253 251 251 250 248 248 246 246 248 250 251 253 256 243 246 247 247 244 237 237 229 224 228
309 306 303 299 296 294 290 289 286 282 280 277 270 268 270 270 265 262 258 253 251 251 249 248 250 248 247 246 246 245 248 250 252 251 246 239 238 240 242 242 238 237 235 227 230
304 304 304 304 302 297 293 291 290 286 281 276 271 267 266 266 265 259 256 256 253 250 248 247 245 247 247 247 246 246 248 251 247 245 243 239 240 241 244 243 244 239 236 235 232
305 307 307 306 307 302 300 297 292 288 282 278 275 270 265 264 262 261 254 251 250 249 248 246 246 247 246 246 247 249 247 248 248 243 239 239 240 241 242 242 244 242 237 235 237
311 310 311 312 310 310 307 305 299 294 287 283 277 269 266 262 260 258 254 252 250 249 247 247 246 245 244 246 246 245 245 245 245 239 240 236 238 240 243 242 241 243 238 235 237
314 316 314 312 312 312 310 306 299 295 288 286 284 278 272 265 260 255 253 253 250 249 248 247 247 249 246 243 242 244 245 244 242 238 236 235 236 240 240 243 242 243 246 239 240
320 317 315 314 313 314 312 306 300 296 291 287 285 283 278 278 267 256 255 251 254 252 248 248 247 244 244 245 243 242 244 245 242 240 239 239 235 236 241 242 245 245 244 245 242
315 316 317 316 316 314 313 306 302 297 293 291 289 286 281 276 266 259 257 253 250 251 251 249 248 246 243 242 243 242 241 242 240 242 241 240 239 237 239 240 243 244 244 243 240
316 316 319 317 317 313 311 305 303 301 297 293 289 286 280 272 267 262 259 255 252 251 251 249 247 247 244 242 241 240 241 241 241 241 242 240 238 238 238 240 241 241 241 244 242
319 317 319 319 317 314 311 308 307 305 302 299 296 289 281 274 268 263 261 258 255 254 254 252 252 248 245 243 242 240 240 240 242 243 244 244 240 242 238 239 239 240 240 240 243
319 321 320 320 318 315 312 311 310 307 303 303 297 286 281 272 267 263 260 257 256 255 252 252 250 249 248 248 249 249 248 245 242 246 247 247 245 246 243 239 237 236 238 239 242
322 322 320 320 319 317 318 319 318 315 310 313 299 292 283 276 269 267 260 258 254 252 250 246 246 249 252 251 249 248 250 248 247 246 248 243 242 242 243 241 239 236 234 238 240
323 322 321 321 320 321 321 321 319 315 313 315 306 300 296 288 278 259 257 254 252 251 250 249 249 248 246 245 245 243 244 246 249 251 249 250 243 240 239 241 240 239 235 234 237
322 321 322 321 323 324 324 323 320 316 314 316 305 302 297 287 275 265 258 250 248 250 247 247 245 243 241 242 244 246 246 246 248 251 250 249 251 242 240 239 238 238 240 236 237
322 322 323 324 326 327 325 324 321 316 314 313 309 306 323 318 300 257 252 247 248 249 256 249 243 237 233 240 241 246 246 244 243 247 249 248 249 245 240 239 239 237 237 241 239
324 325 324 325 326 327 326 324 320 318 318 317 297 306 318 317 320 302 269 256 241 251 266 268 255 236 232 223 228 239 239 240 241 246 247 245 247 244 246 240 240 239 239 240 240
326 327 325 327 328 328 327 323 321 319 318 315 321 314 325 327 329 310 286 266 234 260 289 275 267 233 220 221 222 219 227 231 240 244 249 246 247 247 247 246 243 242 238 240 241
327 329 327 327 328 328 325 322 322 315 309 309 320 347 324 329 321 325 289 262 255 262 307 282 254 222 206 217 218 212 221 228 227 240 248 250 250 249 250 249 245 242 241 238 241
329 330 328 327 329 327 323 321 326 319 299 294 319 332 343 337 324 337 308 263 283 253 296 257 259 232 203 193 200 201 210 219 236 242 246 254 258 259 251 250 249 245 243 240 239
329 331 328 329 330 326 324 321 322 312 290 307 315 337 340 345 342 3 341 243 306 277 263 238 254 209 224 217 208 213 202 211 223 237 241 254 258 261 257 255 255 253 248 244 240
331 334 331 331 331 327 326 329 322 302 288 306 324 331 337 340 346 342 323 303 288 285 259 246 250 150 209 227 236 224 217 204 215 217 217 235 250 254 251 250 250 251 253 247 241
332 335 333 333 328 325 331 332 321 282 279 305 324 333 358 353 329 337 323 305 305 260 261 268 254 239 227 222 224 230 239 240 242 236 228 236 221 232 237 244 242 247 251 250 250
333 336 335 333 332 327 311 324 325 278 278 262 303 313 348 330 323 346 344 308 297 274 256 240 342 161 207 216 210 218 233 236 249 249 246 253 243 237 239 253 265 264 263 242 231
333 335 336 335 327 320 306 320 317 267 281 284 305 281 329 328 323 334 326 303 287 286 277 237 268 322 175 148 171 199 228 238 242 243 248 252 247 250 251 257 264 257 254 235 235
334 337 337 337 330 319 320 318 308 248 280 276 292 323 310 309 309 319 323 314 285 270 269 249 245 175 206 192 188 190 205 224 237 226 248 241 241 246 250 257 253 250 246 247 239
335 337 337 332 315 310 317 317 310 277 295 268 287 314 308 311 308 304 303 315 309 268 256 254 245 180 178 186 205 190 205 230 242 246 246 247 242 240 243 252 247 249 246 251 250
336 338 338 338 332 322 319 320 264 281 313 290 292 320 315 303 296 295 297 296 294 287 243 245 237 191 180 182 196 202 206 240 243 232 244 240 238 240 247 252 248 248 250 242 246